Flag for India Weather past 2 weeks in Varanasi, Uttar Pradesh, India

Now
52 °F

Fog.


Feels Like: 52 °F
Forecast: 44 / 73 °F
Wind: 1 mph from North

Location: Varanasi / Babatpur

Current Time: Dec 21, 2014 at 8:58:08 AM

Latest Report: Dec 21, 2014 at 7:00 AM


Visibility: 0 mi

Pressure: 30.07 "Hg

Humidity: 94%

Dew point: 50 °F

Location of VaranasiLocation

Historic Weather in Varanasi — Graph

°F

Varanasi temperature yesterday

Maximum temperature yesterday: 66 °F (at 3:00 PM)
Minimum temperature yesterday: 50 °F (at 5:00 AM)
Average temperature yesterday: 58 °F

Past Weeks' High & Low Weather Summary

 TemperatureHumidityPressure
High77 °F (Dec 7, 3:00 PM)100% (Dec 6, 7:00 AM)30.24 "Hg (Dec 6, 7:00 AM)
Low48 °F (Dec 8, 6:00 AM)34% (Dec 9, 3:00 PM)29.89 "Hg (Dec 7, 3:00 PM)
Average61 °F81%30.04 "Hg
* Reported Dec 6 7:00 AM — Dec 21 7:00 AM, Varanasi, Weather by CustomWeather, © 2014

Note: Actual official high and low records may vary slightly from our data, if they occured in-between our weather recording intervals... More about our weather records

Advertising

Varanasi weather history for previous 24 hours

 ConditionsComfort  
Time TempWeatherWind HumidityBarometerVisibility
7:00 AM
Dec 21
52 °FFog.1 mph94%30.07 "Hg0 mi
5:00 AM52 °FFog.No wind94%30.01 "Hg0 mi
4:00 AM52 °FFog.No wind94%30.01 "Hg0 mi
12:00 AM54 °FFog.No wind94%30.04 "Hg1 mi
11:00 PM
Dec 20
54 °FFog.No wind94%30.04 "Hg1 mi
10:00 PM55 °FFog.3 mph88%30.07 "Hg1 mi
9:00 PM57 °FFog.5 mph88%30.04 "Hg1 mi
8:00 PM59 °FFog.5 mph88%30.04 "Hg1 mi
7:00 PM59 °FFog.5 mph88%30.01 "Hg1 mi
6:00 PM61 °FFog.3 mph83%30.01 "Hg1 mi
4:00 PM64 °FScattered clouds.3 mph68%30.01 "Hg1 mi
3:00 PM66 °FScattered clouds.6 mph60%30.01 "Hg1 mi
2:00 PM64 °FBroken clouds.5 mph68%30.01 "Hg1 mi
1:00 PM64 °FFog.5 mph73%30.04 "Hg1 mi
11:00 AM61 °FClear.No wind88%30.09 "Hg1 mi
10:00 AM55 °FFog.1 mph82%30.15 "Hg1 mi
Weather by CustomWeather, © 2014

See weather overviewHow to use our weather pages